Location: Unspecified
(41.9031°N, 12.4386°E)
Time: 05:34:23
(UTC+02:00)

ISS - Visible Passes

Search period start: 26 September 2017 00:00
Search period end: 06 October 2017 00:00
Orbit: 401 x 407 km, 51.6° (Epoch: 26 September)

Date Brightness Start Highest point End Pass type
(mag) Time Alt. Az. Time Alt. Az. Time Alt. Az.
26 Sep -4.0 20:25:47 10° SW 20:29:03 80° SE 20:29:51 48° ENE visible
27 Sep -3.3 19:33:40 10° SSW 19:36:45 41° SE 19:39:52 10° ENE visible
27 Sep -1.8 21:10:21 10° W 21:12:41 28° NW 21:12:41 28° NW visible
28 Sep -2.9 20:17:39 10° WSW 20:20:48 46° NNW 20:22:41 21° NE visible
29 Sep -3.8 19:25:07 10° WSW 19:28:22 83° NW 19:31:40 10° NE visible
29 Sep -1.5 21:02:43 10° WNW 21:05:12 20° NNW 21:05:12 20° NNW visible
30 Sep -1.9 20:09:48 10° W 20:12:39 26° NNW 20:14:57 13° NNE visible
01 Oct -2.6 19:17:00 10° W 19:20:06 39° NNW 19:23:13 10° NE visible
01 Oct -1.3 20:55:05 10° NW 20:57:14 16° N 20:57:16 16° N visible
02 Oct -1.5 20:02:08 10° WNW 20:04:33 19° NNW 20:06:53 10° NNE visible
03 Oct -1.3 20:47:13 10° NW 20:49:05 15° N 20:49:05 15° N visible
04 Oct -1.3 19:54:24 10° NW 19:56:28 15° N 19:58:32 10° NNE visible
05 Oct -1.4 20:38:58 10° NNW 20:40:45 16° N 20:40:45 16° N visible
